SCP
0 0 0 0 0 0 0 0 0 0 0 0 0 0 0 0 0 0 0 0 0 0 0 0 1 1 0 1 1 1 1 1 1 0 0 0 0 0 0 0 0 0 0 0 0 0 0 0 0
0 0 0 0 0 0 0 0 0 0 0 0 0 0 0 0 0 0 0 0 0 0 0 0 1 1 1 1 1 1 1 1 1 1 0 0 0 0 0 0 0 0 0 0 0 0 0 0 0
0 0 0 0 0 0 0 0 0 0 0 0 0 0 0 0 0 0 0 0 0 0 0 0 1 1 1 1 1 1 1 1 1 1 1 0 0 0 0 0 0 0 0 0 0 0 0 0 0
0 0 0 0 0 0 0 0 0 0 0 0 0 0 0 0 0 0 0 0 0 0 0 0 1 1 1 1 1 1 1 1 1 1 1 0 0 0 0 0 0 0 0 0 0 0 0 0 0
0 0 0 0 0 0 0 0 0 0 0 0 0 0 0 0 0 0 0 0 0 0 0 0 1 1 1 1 1 1 1 1 1 1 1 0 0 0 0 0 0 0 0 0 0 0 0 0 0
0 0 0 0 0 0 0 0 0 0 0 0 0 0 0 0 0 0 0 0 0 0 0 0 1 1 1 1 1 1 1 1 1 1 1 0 0 0 0 0 0 0 0 0 0 0 0 0 0
0 0 0 0 0 0 0 0 0 0 0 0 0 0 0 0 0 0 0 0 0 0 0 0 0 1 1 1 1 1 1 1 1 1 1 0 0 0 0 0 0 0 0 0 0 0 0 0 0
0 0 0 0 0 0 0 0 0 0 0 0 0 0 0 0 0 0 0 0 0 0 0 0 0 0 1 0 0 1 1 1 1 0 0 0 0 0 0 0 0 0 0 0 0 0 0 0 0
0 0 0 0 0 0 0 0 0 0 0 0 0 0 0 0 0 0 0 0 0 0 0 0 0 0 1 0 0 0 0 0 0 0 0 0 0 0 0 0 0 0 0 0 0 0 0 0 0
0 0 0 0 0 0 0 0 0 0 0 0 0 0 0 0 0 0 0 0 0 0 0 0 0 0 1 1 0 0 0 0 0 0 0 0 0 0 0 0 0 0 0 0 0 0 0 0 0
0 0 0 0 0 0 0 0 0 0 0 0 0 0 0 0 0 0 0 0 0 0 0 0 0 0 0 1 0 0 0 0 0 0 0 0 0 0 0 0 0 0 0 0 0 0 0 0 0
0 0 0 0 0 0 0 0 0 0 0 0 0 0 0 0 0 0 0 0 0 0 0 0 0 0 0 0 0 0 0 0 0 0 0 0 0 0 0 0 0 0 0 0 0 0 0 0 0
0 0 0 0 0 0 0 0 0 0 0 0 0 0 0 0 0 0 0 0 0 0 0 0 0 0 0 0 0 0 0 0 0 0 0 0 0 0 0 0 0 0 0 0 0 0 0 0 0
0 0 0 0 0 0 0 0 0 0 0 0 0 0 0 0 0 0 0 0 0 0 0 0 0 0 0 0 0 0 0 0 0 0 0 0 0 0 0 0 0 0 0 0 0 0 0 0 0
0 0 0 0 0 0 0 0 0 0 0 0 0 0 0 0 0 0 0 0 0 0 0 0 0 0 0 0 0 0 0 0 0 0 0 0 0 0 0 0 0 0 0 0 0 0 0 0 0
0 0 0 0 0 0 0 0 0 0 0 0 0 0 0 0 0 0 0 0 0 0 0 0 0 0 0 0 0 0 0 0 0 0 0 0 0 0 0 0 0 0 0 0 0 0 0 0 0
0 0 0 0 0 0 0 0 0 0 0 0 0 0 0 0 0 0 0 0 0 0 0 0 0 0 0 0 0 0 0 0 0 0 0 0 0 0 0 0 0 0 0 0 0 0 0 0 0
0 0 0 0 0 0 0 0 0 0 0 0 0 0 0 0 0 0 0 0 0 0 0 0 0 0 0 0 0 0 0 0 0 0 0 0 0 0 0 0 0 0 0 0 0 0 0 0 0
0 0 0 0 0 0 0 0 0 0 0 0 0 0 0 0 0 0 0 0 0 0 0 0 0 0 0 0 0 0 0 0 0 0 0 0 0 0 0 0 0 0 0 0 0 0 0 0 0
0 0 0 0 0 0 0 0 0 0 0 0 0 0 0 0 0 0 0 0 0 0 0 0 0 0 0 0 0 0 0 0 0 0 0 0 0 0 0 0 0 0 0 0 0 0 0 0 0
0 0 0 0 0 0 0 0 0 0 0 0 0 0 0 0 0 0 0 0 0 0 0 0 0 0 0 0 0 0 0 0 0 0 0 0 0 0 0 0 0 0 0 0 0 0 0 0 0
0 0 0 0 0 0 0 0 0 0 0 0 0 0 0 0 0 0 0 0 0 0 0 0 0 0 0 0 0 0 0 0 0 0 0 0 0 0 0 0 0 0 0 0 0 0 0 0 0
0 0 0 0 0 0 0 0 0 0 0 0 0 0 0 0 0 0 0 0 0 0 0 0 0 0 0 0 0 0 0 0 0 0 0 0 0 0 0 0 0 0 0 0 0 0 0 0 0
0 0 0 0 0 0 0 0 0 0 0 0 0 0 0 0 0 0 0 0 0 0 0 0 0 0 0 0 0 0 0 0 0 0 0 0 0 0 0 0 0 0 0 0 0 0 0 0 0
0 0 0 0 0 0 0 0 0 0 0 0 0 0 0 0 0 0 0 0 0 0 0 0 0 0 0 0 0 0 0 0 0 0 0 0 0 0 0 0 0 0 0 0 0 0 0 0 0
0 0 0 0 0 0 0 0 0 0 0 0 0 0 0 0 0 0 0 0 0 0 -0 -0 -0 0 0 0 0 0 0 0 0 0 0 0 0 0 0 0 0 0 0 0 0 0 0 0 0
0 0 0 0 0 0 0 0 0 0 0 0 0 0 0 0 0 0 0 0 -0 -0 -0 -0 -0 -0 -0 -0 -0 -0 -0 0 0 0 0 0 0 0 0 0 0 0 0 0 0 0 0 0 0
0 0 0 0 0 0 0 0 0 0 0 0 0 0 0 0 0 0 0 0 -0 -0 -0 -0 -0 0 0 0 0 0 0 0 -0 0 0 0 0 0 0 0 0 0 0 0 0 0 0 0 0
0 0 0 0 0 0 0 0 0 0 0 0 0 0 0 0 0 0 0 0 -0 -0 -0 0 0 0 0 0 0 0 0 0 0 0 0 0 0 0 0 0 0 0 0 0 0 0 0 0 0
0 0 0 0 0 0 0 0 0 0 0 0 0 0 0 0 0 0 -0 -0 -0 -0 -0 0 0 0 0 0 0 0 0 0 0 0 0 -0 0 0 0 0 0 0 0 0 0 0 0 0 0
Wind_Speed
10 10 6 3 3 4 4 3 3 3 3 5 3 3 5 5 4 3 3 3 6 10 14 13 13 13 13 12 12 11 11 11 12 12 11 11 10 9 8 8 7 7 6 6 6 6 7 7 7
8 6 4 3 3 3 2 5 5 7 4 2 1 2 3 2 5 6 5 4 6 10 13 12 12 13 13 13 12 12 11 11 12 12 11 10 9 8 7 6 6 6 6 6 6 6 6 7 7
7 6 3 3 4 3 5 4 5 3 3 0 2 2 2 4 4 4 5 7 5 8 10 12 13 13 13 13 13 12 11 11 12 12 12 10 9 8 7 6 5 5 5 5 6 6 7 6 7
4 3 4 4 7 3 3 5 6 5 3 2 3 4 3 4 3 5 6 7 6 7 8 13 14 13 13 13 12 12 11 11 12 13 12 10 9 8 7 6 5 5 5 5 6 7 7 6 6
3 3 4 6 6 1 2 4 2 3 2 4 3 4 1 4 8 7 5 6 6 6 7 13 14 12 12 12 12 12 11 11 12 12 12 11 10 8 7 6 6 5 5 6 6 7 6 6 6
3 3 4 5 3 3 2 4 2 4 2 1 1 5 1 5 7 6 6 6 5 6 6 10 12 12 11 12 12 11 11 12 12 11 11 11 10 9 8 7 7 6 6 7 7 7 6 6 6
3 3 5 7 5 1 3 3 3 5 5 1 3 3 2 5 5 6 5 5 5 6 5 6 8 10 10 11 11 11 11 11 11 11 11 10 9 9 8 7 7 7 7 7 7 6 6 6 6
4 3 6 6 4 3 4 3 1 4 6 3 2 4 2 4 5 4 3 5 5 5 5 5 8 8 8 7 10 11 11 11 10 10 10 9 9 8 8 7 7 8 8 8 7 7 6 6 5
3 3 5 6 3 3 2 1 2 3 4 5 3 4 3 6 5 4 3 4 5 5 6 6 6 8 8 8 10 10 9 10 9 8 10 9 6 6 6 7 8 9 9 9 8 7 7 6 4
3 3 6 6 5 6 7 6 6 3 6 8 7 9 8 8 6 6 7 7 8 8 7 6 7 7 7 7 7 6 6 6 6 5 7 5 4 5 7 9 10 9 9 9 9 8 7 5 3
5 6 6 8 6 6 6 8 7 8 9 9 8 6 2 6 7 8 8 8 9 9 9 8 8 7 7 5 5 5 4 5 6 7 8 6 5 4 4 4 5 5 7 5 6 5 3 3 2
7 7 7 8 4 2 5 7 8 8 11 9 9 9 6 6 8 10 10 9 7 8 10 11 9 7 7 6 4 5 4 4 5 6 7 6 4 4 4 4 4 4 3 4 4 3 3 2 2
7 7 9 7 4 5 7 10 10 13 13 11 10 8 7 7 7 8 8 9 8 8 8 11 11 9 7 6 5 5 5 4 5 5 6 7 5 5 4 4 5 5 4 5 5 4 4 3 3
5 8 9 9 10 8 8 11 8 12 9 8 6 6 8 9 9 8 7 7 8 8 7 7 10 10 8 6 5 4 4 4 5 5 6 7 5 5 5 5 5 5 5 5 5 5 4 4 3
3 7 11 13 14 7 3 8 8 10 5 5 6 8 9 8 7 7 8 7 8 7 7 6 7 9 8 7 6 4 4 4 4 4 6 7 6 6 5 5 5 5 5 6 4 5 4 4 4
5 6 6 6 3 6 5 8 8 6 7 8 9 9 10 9 6 4 2 1 1 3 4 5 4 6 6 6 4 3 3 4 4 4 5 7 7 6 5 5 5 5 5 5 5 5 4 4 4
6 7 9 8 5 6 6 7 8 8 8 11 12 11 10 7 5 7 10 10 9 6 4 4 4 4 4 4 3 2 2 3 2 3 3 5 6 6 5 4 4 6 5 5 5 5 5 5 5
6 8 9 9 3 3 7 9 9 8 9 11 11 10 6 4 9 13 15 14 13 11 9 7 5 4 4 3 2 0 1 1 1 2 2 4 5 6 5 4 5 6 5 5 5 6 5 5 5
9 11 13 12 10 10 10 9 7 8 12 12 10 6 3 10 13 15 17 16 15 15 13 11 8 5 4 3 2 1 1 1 1 1 2 3 5 6 6 4 5 5 6 6 7 5 6 4 5
7 10 13 11 8 6 8 10 10 12 14 13 8 1 7 11 14 16 17 16 15 14 14 14 13 10 6 3 2 2 1 1 1 1 2 3 4 5 5 6 5 5 5 6 7 6 5 4 6
10 10 10 10 8 6 9 9 10 8 10 3 3 9 13 14 15 15 15 14 14 14 14 13 14 13 11 8 3 3 3 2 3 3 2 3 4 5 5 7 6 6 6 6 8 8 9 6 6
10 5 5 5 4 4 3 7 6 10 4 4 8 13 14 15 15 14 14 14 14 12 11 12 13 13 12 10 8 6 3 2 3 2 2 3 5 5 6 6 7 6 6 7 8 9 7 7 7
4 2 2 5 6 6 6 8 8 6 6 9 12 14 14 13 13 12 12 11 11 10 10 10 11 12 12 11 11 9 7 5 4 5 5 4 3 5 6 6 6 6 6 7 8 8 9 8 7
2 2 6 7 2 6 7 8 5 2 9 11 11 12 11 11 10 9 8 8 8 8 8 9 10 11 11 11 10 9 9 8 8 7 6 5 4 3 5 6 6 7 6 7 8 8 10 10 10
2 1 3 2 4 7 2 2 3 5 10 14 14 12 10 9 8 7 7 7 7 7 7 8 9 10 10 9 9 8 8 8 7 7 7 7 5 4 5 4 6 6 7 8 7 8 9 10 12
5 4 4 4 5 4 4 5 3 7 11 14 13 11 9 8 6 6 6 5 5 5 6 7 8 7 8 8 7 7 7 6 5 6 6 7 5 5 7 6 6 7 8 8 8 8 8 8 11
2 3 1 1 3 5 7 5 3 7 11 11 10 9 7 6 5 5 5 5 5 5 5 6 6 5 6 6 6 6 7 7 7 7 6 6 6 7 9 9 8 7 7 8 9 8 8 8 10
1 1 3 3 4 7 7 7 4 7 9 9 7 6 5 4 4 4 4 4 4 4 4 4 4 4 4 5 5 5 5 6 6 6 7 7 8 8 9 9 9 8 8 8 9 9 9 10 10
5 4 5 5 5 5 5 6 3 8 9 8 6 5 3 3 3 3 3 3 3 3 4 4 4 4 4 4 5 5 5 5 5 5 6 6 7 8 9 9 9 9 9 8 8 9 9 11 11
6 8 8 7 8 6 6 7 6 8 7 6 4 3 2 1 1 2 2 2 3 3 4 4 4 4 4 4 5 5 5 5 5 5 6 6 7 7 8 9 9 9 9 9 9 10 10 12 13
Wind_Direction
279 262 262 273 254 233 252 64 53 33 56 45 27 339 338 328 360 72 155 156 134 133 139 154 155 157 158 157 156 156 158 158 156 149 142 133 126 119 113 107 102 99 95 90 83 76 70 65 62
292 294 278 249 256 275 74 63 56 53 50 13 299 250 274 273 92 112 146 146 139 137 143 161 156 160 162 162 161 163 167 167 163 155 148 140 135 131 129 121 114 109 103 97 90 83 76 71 69
277 272 269 261 263 324 18 42 45 70 115 87 282 226 297 3 86 94 116 144 151 140 146 156 157 165 166 167 167 169 173 174 167 158 152 147 144 143 140 133 124 116 110 105 98 91 82 76 72
281 246 241 253 273 323 10 13 27 345 116 133 301 289 164 103 66 90 120 150 159 146 146 149 161 170 171 171 173 176 179 178 170 161 157 154 151 149 148 146 141 133 126 115 105 97 89 81 75
231 260 248 253 253 62 41 38 27 301 295 163 192 281 73 101 102 113 144 160 165 154 146 150 166 172 176 176 179 182 182 179 169 163 160 160 158 158 160 160 156 153 144 128 115 104 94 85 77
264 261 275 284 349 59 73 58 317 273 276 104 203 271 123 126 134 142 152 164 175 157 149 147 167 172 179 181 181 183 183 179 170 167 165 165 165 167 169 171 169 168 156 140 127 115 103 91 81
283 288 284 302 313 316 107 91 309 320 310 218 161 282 149 139 129 133 150 169 180 158 155 150 165 176 181 182 182 183 182 176 171 169 168 167 168 169 170 173 178 176 164 151 138 127 116 102 87
309 291 271 270 290 332 111 122 276 319 312 18 35 274 38 108 109 126 158 176 181 166 170 183 170 178 180 182 186 182 177 172 170 169 165 164 165 167 166 169 182 181 170 159 149 140 128 111 96
288 263 268 286 319 329 66 180 261 170 269 280 230 255 126 133 133 150 179 208 197 189 187 197 191 181 179 179 183 179 175 173 170 168 163 158 162 164 162 178 183 183 171 164 160 153 135 122 113
225 250 259 309 350 347 347 338 326 296 272 272 250 228 167 153 168 191 204 211 209 204 198 199 204 189 181 182 171 175 177 174 177 172 165 172 181 178 173 184 177 175 164 165 168 159 148 156 155
217 237 285 316 352 3 331 311 300 284 271 271 287 312 151 176 195 214 224 223 216 203 194 200 202 196 186 180 168 171 177 177 186 189 175 175 184 172 159 147 156 157 153 155 161 152 184 204 154
241 262 282 292 331 355 297 294 293 275 267 278 290 296 292 235 219 217 222 229 227 208 193 192 193 195 190 183 177 169 172 180 183 187 178 170 175 171 160 152 160 160 160 161 152 167 191 171 135
262 270 275 288 307 281 276 273 278 267 264 269 271 276 273 266 257 243 226 217 221 225 203 185 186 191 188 186 183 179 180 181 181 178 180 173 172 174 169 167 166 169 166 165 159 171 173 166 164
317 325 312 300 272 246 248 271 273 265 265 269 273 273 259 249 243 241 236 221 213 218 219 190 181 185 185 185 187 184 183 181 181 179 182 179 173 173 172 174 171 172 166 162 162 171 168 171 161
345 296 280 256 245 222 200 274 248 260 281 296 293 286 280 269 260 243 232 221 209 201 199 198 182 175 179 185 189 185 184 182 183 181 180 180 182 179 174 176 178 178 163 159 160 169 159 164 162
243 249 266 261 179 110 143 252 276 355 353 314 296 289 285 281 280 292 323 320 182 150 163 174 153 160 169 174 184 192 189 191 188 182 177 182 189 186 178 180 183 176 163 160 165 168 163 171 168
234 240 250 269 162 145 187 242 277 310 306 289 283 281 283 295 348 36 42 38 34 43 68 111 129 136 146 156 162 188 201 202 191 180 175 183 189 193 186 187 185 174 169 171 176 173 167 172 173
248 266 291 301 306 204 218 244 262 274 273 270 274 281 296 23 54 53 48 40 37 34 38 53 89 111 111 109 115 125 263 241 207 189 187 187 188 193 193 191 190 177 175 182 183 180 183 168 162
276 288 287 287 291 285 276 278 291 286 278 275 276 287 50 71 65 56 49 41 37 32 31 34 42 67 92 93 102 121 267 276 259 225 218 208 195 192 196 197 196 188 190 194 189 177 182 174 146
284 285 284 285 286 301 296 285 274 261 260 263 272 7 80 77 64 55 49 42 37 33 31 34 30 32 41 71 103 97 64 343 308 265 231 227 216 201 197 202 201 197 194 199 199 189 178 181 169
259 261 274 289 316 296 283 275 253 258 244 251 67 74 75 73 66 56 49 42 36 32 29 36 33 29 23 22 44 49 40 13 347 321 289 246 233 224 211 209 208 204 197 204 207 201 191 192 200
270 278 303 312 315 281 297 292 249 259 236 103 77 75 72 67 64 56 49 42 36 27 24 34 36 30 22 20 25 21 14 340 301 290 278 257 231 229 224 217 215 215 209 210 211 209 208 194 197
259 39 318 278 266 270 251 259 265 220 119 98 84 79 74 69 65 58 50 45 37 26 24 28 35 33 25 24 25 24 16 358 344 340 326 311 272 238 227 222 221 223 221 219 217 215 215 215 207
1 323 264 240 237 263 234 229 287 107 129 116 98 86 79 74 69 63 56 49 40 29 25 28 32 31 24 23 23 23 14 1 355 349 338 328 313 287 249 230 224 226 228 228 226 223 220 222 226
172 210 303 284 208 230 22 277 274 75 110 122 113 98 85 77 71 62 51 46 42 31 27 31 33 30 22 18 17 16 11 3 358 350 340 335 328 321 301 267 238 231 231 233 233 231 229 225 228
183 198 204 241 256 297 350 256 263 100 93 96 97 95 87 80 76 73 65 56 50 40 32 33 32 28 20 14 7 8 7 4 355 349 340 333 328 321 317 307 278 250 236 234 235 239 236 232 232
194 204 200 225 288 282 253 232 137 112 106 103 100 94 87 83 79 74 68 57 47 40 37 37 32 25 19 9 360 1 2 358 348 341 336 331 329 326 323 315 304 284 257 241 236 239 240 239 237
242 19 78 163 230 245 256 254 237 150 134 116 103 96 87 75 68 65 56 47 41 37 31 35 33 24 11 3 357 355 350 345 337 333 330 328 327 325 320 316 310 301 285 259 244 242 239 242 243
187 190 206 217 220 231 256 261 74 116 132 127 118 109 96 74 59 54 50 42 34 26 21 16 12 7 357 350 343 337 330 326 324 321 321 322 320 321 319 316 311 304 296 282 260 248 241 242 245
243 233 222 229 235 230 247 259 71 95 108 124 137 136 124 93 53 37 26 23 16 8 359 352 346 342 336 329 320 313 308 307 308 306 308 309 309 310 309 309 307 302 297 290 276 264 251 245 245